LNI836 WARR-WIOO

Flight info

Callsign LNI836
Flight time 1h 26m
Altitude 32000
Route RAMPY M635 RAFIS
Aircraft B739/M-SDE2E3FGHIRWXY/LB1

Departure

Time 2026-05-07 04:21
Airport Juanda International Airport (WARR)

Arrival

Time 2026-05-07 05:47
Airport Supadio International Airport (WIOO)
Time Latitude Longitude Altitude Speed Heading
2026-05-07 03:55 -7.37572 112.78325 8 ft 0 kts
2026-05-07 04:11 -7.37580 112.78324 8 ft 3 kts
2026-05-07 04:11 -7.37599 112.78321 8 ft 3 kts 12°
2026-05-07 04:11 -7.37606 112.78319 9 ft 1 kts 20°
2026-05-07 04:15 -7.37605 112.78320 8 ft 0 kts 20°
2026-05-07 04:15 -7.37604 112.78320 8 ft 0 kts 20°
2026-05-07 04:15 -7.37578 112.78324 9 ft 0 kts
2026-05-07 04:16 -7.37573 112.78315 8 ft 4 kts 284°
2026-05-07 04:17 -7.37601 112.78267 9 ft 11 kts 236°
2026-05-07 04:17 -7.37616 112.78192 9 ft 11 kts 257°
2026-05-07 04:17 -7.37679 112.78155 8 ft 11 kts 198°
2026-05-07 04:17 -7.37712 112.78095 8 ft 11 kts 275°
2026-05-07 04:18 -7.37697 112.78001 8 ft 17 kts 279°
2026-05-07 04:18 -7.37674 112.77858 9 ft 24 kts 279°
2026-05-07 04:18 -7.37647 112.77692 9 ft 23 kts 279°
2026-05-07 04:18 -7.37621 112.77534 8 ft 21 kts 279°
2026-05-07 04:19 -7.37608 112.77441 8 ft 12 kts 270°
2026-05-07 04:19 -7.37660 112.77383 8 ft 12 kts 190°
2026-05-07 04:19 -7.37693 112.77377 7 ft 0 kts 189°
2026-05-07 04:19 -7.37701 112.77376 8 ft 6 kts 189°
2026-05-07 04:20 -7.37767 112.77378 9 ft 10 kts 131°
2026-05-07 04:20 -7.37783 112.77446 9 ft 8 kts 100°
2026-05-07 04:20 -7.37825 112.77708 7 ft 75 kts 99°
2026-05-07 04:21 -7.38129 112.79588 171 ft 176 kts 100°
2026-05-07 04:21 -7.38377 112.80807 866 ft 181 kts 99°
2026-05-07 04:21 -7.38568 112.82061 1672 ft 180 kts 97°
2026-05-07 04:21 -7.38754 112.83356 2089 ft 198 kts 98°
2026-05-07 04:22 -7.38972 112.84805 2298 ft 219 kts 98°
2026-05-07 04:22 -7.39217 112.86381 2526 ft 235 kts 99°
2026-05-07 04:22 -7.39481 112.88034 3050 ft 242 kts 99°
2026-05-07 04:22 -7.39758 112.89740 3474 ft 256 kts 100°
2026-05-07 04:23 -7.39866 112.91564 3983 ft 266 kts 78°
2026-05-07 04:23 -7.39018 112.93214 4683 ft 271 kts 45°
2026-05-07 04:23 -7.37384 112.94138 5378 ft 276 kts 13°
2026-05-07 04:23 -7.35450 112.94304 6073 ft 282 kts 359°
2026-05-07 04:24 -7.33561 112.93777 6723 ft 287 kts 332°
2026-05-07 04:24 -7.31848 112.92724 7410 ft 291 kts 328°
2026-05-07 04:24 -7.30149 112.91597 8080 ft 294 kts 328°
2026-05-07 04:24 -7.28461 112.90470 8729 ft 296 kts 328°
2026-05-07 04:25 -7.26729 112.89323 9345 ft 300 kts 328°
2026-05-07 04:25 -7.24976 112.88175 9976 ft 302 kts 328°
2026-05-07 04:25 -7.23189 112.87017 10411 ft 313 kts 329°
2026-05-07 04:25 -7.21297 112.85802 10548 ft 332 kts 328°
2026-05-07 04:26 -7.19291 112.84522 10690 ft 350 kts 329°
2026-05-07 04:26 -7.17194 112.83189 10964 ft 361 kts 329°
2026-05-07 04:26 -7.15053 112.81831 11463 ft 365 kts 328°
2026-05-07 04:26 -7.12903 112.80469 12062 ft 366 kts 328°
2026-05-07 04:27 -7.10745 112.79105 12624 ft 368 kts 328°
2026-05-07 04:27 -7.08568 112.77731 13133 ft 371 kts 328°
2026-05-07 04:27 -7.06383 112.76353 13618 ft 374 kts 328°
2026-05-07 04:27 -7.04163 112.74954 14101 ft 377 kts 328°
2026-05-07 04:28 -7.01928 112.73546 14585 ft 380 kts 328°
2026-05-07 04:28 -6.99682 112.72132 15058 ft 382 kts 328°
2026-05-07 04:28 -6.97421 112.70708 15515 ft 385 kts 328°
2026-05-07 04:28 -6.95147 112.69275 15953 ft 388 kts 328°
2026-05-07 04:29 -6.92849 112.67831 16365 ft 391 kts 329°
2026-05-07 04:29 -6.90537 112.66376 16804 ft 393 kts 328°
2026-05-07 04:29 -6.88221 112.64913 17225 ft 395 kts 328°
2026-05-07 04:29 -6.85884 112.63437 17627 ft 398 kts 328°
2026-05-07 04:30 -6.83530 112.61953 17998 ft 401 kts 328°
2026-05-07 04:30 -6.81162 112.60461 18390 ft 403 kts 328°
2026-05-07 04:30 -6.78778 112.58959 18772 ft 405 kts 328°
2026-05-07 04:30 -6.76382 112.57450 19133 ft 407 kts 328°
2026-05-07 04:31 -6.73972 112.55934 19485 ft 410 kts 328°
2026-05-07 04:31 -6.71546 112.54409 19812 ft 413 kts 328°
2026-05-07 04:31 -6.69106 112.52874 20103 ft 416 kts 328°
2026-05-07 04:31 -6.66645 112.51326 20432 ft 417 kts 328°
2026-05-07 04:32 -6.64179 112.49775 20752 ft 419 kts 328°
2026-05-07 04:32 -6.61697 112.48214 21052 ft 421 kts 328°
2026-05-07 04:32 -6.59206 112.46649 21351 ft 424 kts 328°
2026-05-07 04:32 -6.56698 112.45071 21586 ft 426 kts 328°
2026-05-07 04:33 -6.54175 112.43484 21836 ft 429 kts 328°
2026-05-07 04:33 -6.51678 112.41913 22124 ft 430 kts 328°
2026-05-07 04:33 -6.49102 112.40294 22410 ft 432 kts 328°
2026-05-07 04:33 -6.46551 112.38693 22647 ft 433 kts 328°
2026-05-07 04:34 -6.44020 112.37104 22866 ft 436 kts 328°
2026-05-07 04:34 -6.41441 112.35484 23083 ft 438 kts 328°
2026-05-07 04:34 -6.38852 112.33858 23326 ft 440 kts 328°
2026-05-07 04:34 -6.36255 112.32227 23558 ft 441 kts 328°
2026-05-07 04:35 -6.33644 112.30587 23791 ft 443 kts 328°
2026-05-07 04:35 -6.31031 112.28946 24006 ft 444 kts 328°
2026-05-07 04:35 -6.28411 112.27301 24202 ft 446 kts 328°
2026-05-07 04:35 -6.25772 112.25645 24375 ft 448 kts 328°
2026-05-07 04:36 -6.23121 112.23981 24553 ft 450 kts 328°
2026-05-07 04:36 -6.20463 112.22313 24762 ft 451 kts 328°
2026-05-07 04:36 -6.17803 112.20644 24948 ft 452 kts 328°
2026-05-07 04:36 -6.15129 112.18966 25104 ft 455 kts 328°
2026-05-07 04:37 -6.12442 112.17280 25296 ft 455 kts 328°
2026-05-07 04:37 -6.09752 112.15592 25480 ft 456 kts 328°
2026-05-07 04:37 -6.07056 112.13901 25655 ft 458 kts 328°
2026-05-07 04:37 -6.04354 112.12206 25827 ft 459 kts 328°
2026-05-07 04:38 -6.01639 112.10504 25965 ft 461 kts 328°
2026-05-07 04:38 -5.98918 112.08797 26187 ft 460 kts 328°
2026-05-07 04:38 -5.96192 112.07088 26236 ft 465 kts 328°
2026-05-07 04:38 -5.93435 112.05359 26272 ft 468 kts 328°
2026-05-07 04:39 -5.90664 112.03622 26301 ft 472 kts 328°
2026-05-07 04:39 -5.87877 112.01876 26523 ft 470 kts 328°
2026-05-07 04:39 -5.85103 112.00139 26749 ft 469 kts 328°
2026-05-07 04:39 -5.82332 111.98404 26916 ft 470 kts 328°
2026-05-07 04:40 -5.79554 111.96664 27042 ft 471 kts 328°
2026-05-07 04:40 -5.76773 111.94921 27150 ft 473 kts 328°
2026-05-07 04:40 -5.73973 111.93167 27258 ft 474 kts 328°
2026-05-07 04:40 -5.71174 111.91414 27391 ft 475 kts 328°
2026-05-07 04:41 -5.68367 111.89656 27528 ft 476 kts 328°
2026-05-07 04:41 -5.65558 111.87898 27658 ft 476 kts 328°
2026-05-07 04:41 -5.62751 111.86141 27772 ft 477 kts 327°
2026-05-07 04:41 -5.59923 111.84371 27886 ft 478 kts 328°
2026-05-07 04:42 -5.57103 111.82606 27988 ft 479 kts 327°
2026-05-07 04:42 -5.54273 111.80835 28096 ft 480 kts 327°
2026-05-07 04:42 -5.48590 111.77279 28293 ft 482 kts 327°
2026-05-07 04:43 -5.45743 111.75497 28407 ft 483 kts 327°
2026-05-07 04:43 -5.42893 111.73714 28533 ft 483 kts 328°
2026-05-07 04:43 -5.40036 111.71927 28648 ft 484 kts 328°
2026-05-07 04:43 -5.37176 111.70138 28743 ft 485 kts 328°
2026-05-07 04:44 -5.34310 111.68346 28846 ft 486 kts 328°
2026-05-07 04:44 -5.31443 111.66553 28946 ft 486 kts 328°
2026-05-07 04:44 -5.25686 111.62954 29089 ft 489 kts 328°
2026-05-07 04:45 -5.22797 111.61148 29190 ft 489 kts 328°
2026-05-07 04:45 -5.19914 111.59345 29383 ft 488 kts 328°
2026-05-07 04:45 -5.17037 111.57548 29560 ft 486 kts 328°
2026-05-07 04:45 -5.14164 111.55754 29704 ft 487 kts 328°
2026-05-07 04:46 -5.08403 111.52154 29915 ft 488 kts 328°
2026-05-07 04:46 -5.06498 111.50964 30038 ft 487 kts 328°
2026-05-07 04:46 -5.02653 111.48563 30285 ft 486 kts 328°
2026-05-07 04:47 -5.00751 111.47375 30391 ft 486 kts 328°
2026-05-07 04:47 -4.97878 111.45581 30539 ft 486 kts 328°
2026-05-07 04:47 -4.95014 111.43793 30736 ft 485 kts 328°
2026-05-07 04:47 -4.92153 111.42006 30974 ft 483 kts 328°
2026-05-07 04:48 -4.89312 111.40233 31201 ft 481 kts 328°
2026-05-07 04:48 -4.86470 111.38459 31374 ft 482 kts 328°
2026-05-07 04:48 -4.83623 111.36682 31539 ft 482 kts 328°
2026-05-07 04:48 -4.80780 111.34907 31727 ft 481 kts 328°
2026-05-07 04:49 -4.77940 111.33134 31858 ft 480 kts 328°
2026-05-07 04:49 -4.75128 111.31323 31852 ft 480 kts 323°
2026-05-07 04:49 -4.70446 111.26629 31870 ft 477 kts 309°
2026-05-07 04:50 -4.66207 111.21509 31854 ft 477 kts 309°
2026-05-07 04:50 -4.61951 111.16400 31870 ft 477 kts 310°
2026-05-07 04:51 -4.57662 111.11317 31855 ft 478 kts 310°
2026-05-07 04:51 -4.53361 111.06250 31862 ft 478 kts 310°
2026-05-07 04:52 -4.49051 111.01180 31863 ft 478 kts 310°
2026-05-07 04:52 -4.44743 110.96106 31855 ft 478 kts 310°
2026-05-07 04:53 -4.40433 110.91030 31858 ft 478 kts 310°
2026-05-07 04:53 -4.36156 110.85994 31861 ft 478 kts 310°
2026-05-07 04:54 -4.31849 110.80924 31859 ft 478 kts 310°
2026-05-07 04:54 -4.27543 110.75857 31866 ft 478 kts 310°
2026-05-07 04:55 -4.23237 110.70789 31859 ft 478 kts 310°
2026-05-07 04:55 -4.18925 110.65715 31867 ft 478 kts 310°
2026-05-07 04:56 -4.14616 110.60647 31862 ft 478 kts 311°
2026-05-07 04:56 -4.10304 110.55575 31855 ft 478 kts 311°
2026-05-07 04:57 -4.05994 110.50508 31858 ft 478 kts 311°
2026-05-07 04:57 -4.01690 110.45449 31864 ft 477 kts 311°
2026-05-07 04:58 -3.97387 110.40393 31862 ft 477 kts 311°
2026-05-07 04:58 -3.93086 110.35336 31865 ft 477 kts 311°
2026-05-07 04:59 -3.88780 110.30276 31866 ft 477 kts 311°
2026-05-07 04:59 -3.84467 110.25217 31857 ft 478 kts 311°
2026-05-07 05:00 -3.80160 110.20154 31871 ft 479 kts 311°
2026-05-07 05:00 -3.75828 110.15067 31856 ft 480 kts 311°
2026-05-07 05:01 -3.71499 110.09981 31860 ft 479 kts 311°
2026-05-07 05:01 -3.67179 110.04907 31859 ft 478 kts 311°
2026-05-07 05:02 -3.62900 109.99884 31862 ft 477 kts 311°
2026-05-07 05:02 -3.58597 109.94835 31862 ft 476 kts 311°
2026-05-07 05:03 -3.54298 109.89792 31865 ft 476 kts 311°
2026-05-07 05:03 -3.49971 109.84713 31865 ft 476 kts 311°
2026-05-07 05:04 -3.45693 109.79692 31881 ft 480 kts 311°
2026-05-07 05:04 -3.41336 109.74587 31854 ft 483 kts 311°
2026-05-07 05:05 -3.36978 109.69474 31872 ft 483 kts 311°
2026-05-07 05:05 -3.32613 109.64356 31849 ft 482 kts 311°
2026-05-07 05:06 -3.28281 109.59276 31857 ft 478 kts 311°
2026-05-07 05:06 -3.23972 109.54224 31859 ft 476 kts 311°
2026-05-07 05:07 -3.19673 109.49185 31861 ft 476 kts 311°
2026-05-07 05:07 -3.15383 109.44158 31864 ft 475 kts 311°
2026-05-07 05:08 -3.11094 109.39133 31852 ft 475 kts 311°
2026-05-07 05:08 -3.06806 109.34110 31863 ft 475 kts 311°
2026-05-07 05:09 -3.02511 109.29077 31858 ft 476 kts 311°
2026-05-07 05:09 -2.98198 109.24025 31865 ft 478 kts 311°
2026-05-07 05:10 -2.93877 109.18961 31863 ft 479 kts 311°
2026-05-07 05:10 -2.89092 109.14393 31866 ft 476 kts 333°
2026-05-07 05:11 -2.86048 109.13144 31843 ft 473 kts 349°
2026-05-07 05:11 -2.82818 109.12635 31890 ft 470 kts 355°
2026-05-07 05:11 -2.76306 109.11902 31869 ft 472 kts 355°
2026-05-07 05:12 -2.69766 109.11168 31859 ft 474 kts 355°
2026-05-07 05:12 -2.63220 109.10386 31859 ft 474 kts 354°
2026-05-07 05:13 -2.56669 109.09579 31861 ft 474 kts 354°
2026-05-07 05:13 -2.50129 109.08769 31861 ft 473 kts 354°
2026-05-07 05:14 -2.43599 109.07960 31855 ft 472 kts 354°
2026-05-07 05:14 -2.37079 109.07156 31861 ft 472 kts 355°
2026-05-07 05:15 -2.30574 109.06354 31858 ft 470 kts 355°
2026-05-07 05:15 -2.24087 109.05555 31862 ft 469 kts 355°
2026-05-07 05:16 -2.17605 109.04755 31860 ft 469 kts 355°
2026-05-07 05:16 -2.11133 109.03956 31863 ft 469 kts 355°
2026-05-07 05:17 -2.04698 109.03162 31861 ft 469 kts 355°
2026-05-07 05:17 -1.98213 109.02363 31860 ft 470 kts 355°
2026-05-07 05:18 -1.91707 109.01561 31827 ft 472 kts 355°
2026-05-07 05:18 -1.85194 109.00758 31829 ft 472 kts 355°
2026-05-07 05:19 -1.78676 108.99955 31834 ft 472 kts 355°
2026-05-07 05:19 -1.72154 108.99151 31833 ft 472 kts 355°
2026-05-07 05:20 -1.65640 108.98347 31844 ft 472 kts 355°
2026-05-07 05:20 -1.59109 108.97542 31831 ft 474 kts 355°
2026-05-07 05:21 -1.49307 108.96335 31832 ft 472 kts 355°
2026-05-07 05:22 -1.42795 108.95532 31831 ft 471 kts 355°
2026-05-07 05:22 -1.39566 108.95133 31693 ft 465 kts 355°
2026-05-07 05:22 -1.36370 108.94739 31247 ft 460 kts 355°
2026-05-07 05:22 -1.33214 108.94349 30726 ft 455 kts 355°
2026-05-07 05:23 -1.30085 108.93964 30213 ft 451 kts 355°
2026-05-07 05:23 -1.26987 108.93582 29704 ft 446 kts 355°
2026-05-07 05:23 -1.23917 108.93204 29188 ft 443 kts 355°
2026-05-07 05:23 -1.20879 108.92829 28671 ft 439 kts 355°
2026-05-07 05:24 -1.17861 108.92458 28155 ft 435 kts 355°
2026-05-07 05:24 -1.14870 108.92089 27640 ft 432 kts 355°
2026-05-07 05:24 -1.11898 108.91724 27131 ft 428 kts 355°
2026-05-07 05:24 -1.08959 108.91362 26624 ft 425 kts 355°
2026-05-07 05:25 -1.06044 108.91003 26120 ft 421 kts 355°
2026-05-07 05:25 -1.03146 108.90646 25618 ft 418 kts 355°
2026-05-07 05:25 -1.00271 108.90291 25116 ft 415 kts 355°
2026-05-07 05:25 -0.97414 108.89940 24623 ft 412 kts 355°
2026-05-07 05:26 -0.94582 108.89591 24132 ft 409 kts 355°
2026-05-07 05:26 -0.91768 108.89244 23644 ft 406 kts 355°
2026-05-07 05:26 -0.88975 108.88913 23156 ft 402 kts 358°
2026-05-07 05:26 -0.86227 108.89142 22647 ft 393 kts 18°
2026-05-07 05:27 -0.83658 108.90016 22205 ft 388 kts 22°
2026-05-07 05:27 -0.81141 108.90963 21716 ft 386 kts 23°
2026-05-07 05:27 -0.78674 108.91907 21245 ft 383 kts 23°
2026-05-07 05:27 -0.76194 108.92853 20774 ft 380 kts 22°
2026-05-07 05:28 -0.73731 108.93783 20314 ft 378 kts 22°
2026-05-07 05:28 -0.71280 108.94701 19851 ft 375 kts 22°
2026-05-07 05:28 -0.68843 108.95607 19410 ft 372 kts 22°
2026-05-07 05:28 -0.66416 108.96506 18931 ft 371 kts 22°
2026-05-07 05:29 -0.64001 108.97399 18476 ft 369 kts 22°
2026-05-07 05:29 -0.61571 108.98296 18016 ft 366 kts 21°
2026-05-07 05:29 -0.59216 108.99165 17572 ft 364 kts 21°
2026-05-07 05:29 -0.56845 109.00040 17126 ft 363 kts 21°
2026-05-07 05:30 -0.54476 109.00913 16678 ft 362 kts 21°
2026-05-07 05:30 -0.52120 109.01780 16224 ft 361 kts 21°
2026-05-07 05:30 -0.49766 109.02646 15772 ft 360 kts 21°
2026-05-07 05:30 -0.47423 109.03514 15348 ft 358 kts 21°
2026-05-07 05:31 -0.45094 109.04377 14883 ft 356 kts 21°
2026-05-07 05:31 -0.42767 109.05232 14420 ft 356 kts 21°
2026-05-07 05:31 -0.40454 109.06086 13980 ft 353 kts 21°
2026-05-07 05:31 -0.38156 109.06935 13539 ft 351 kts 21°
2026-05-07 05:32 -0.35872 109.07778 13103 ft 349 kts 21°
2026-05-07 05:32 -0.33601 109.08617 12659 ft 347 kts 21°
2026-05-07 05:32 -0.31345 109.09450 12230 ft 344 kts 21°
2026-05-07 05:32 -0.29106 109.10276 11795 ft 342 kts 21°
2026-05-07 05:33 -0.26872 109.11100 11350 ft 341 kts 21°
2026-05-07 05:33 -0.24663 109.11915 10985 ft 337 kts 21°
2026-05-07 05:33 -0.22504 109.12709 10891 ft 324 kts 20°
2026-05-07 05:33 -0.20351 109.13304 10568 ft 321 kts 11°
2026-05-07 05:34 -0.18904 109.13544 10373 ft 318 kts
2026-05-07 05:34 -0.16717 109.13846 9965 ft 317 kts
2026-05-07 05:34 -0.14573 109.14140 9925 ft 303 kts
2026-05-07 05:34 -0.12528 109.14435 9876 ft 290 kts
2026-05-07 05:35 -0.10558 109.14734 9684 ft 284 kts
2026-05-07 05:35 -0.08611 109.15039 9365 ft 283 kts
2026-05-07 05:35 -0.06670 109.15348 9039 ft 280 kts
2026-05-07 05:35 -0.04761 109.15653 8593 ft 277 kts
2026-05-07 05:36 -0.02866 109.15956 8092 ft 277 kts
2026-05-07 05:36 -0.01037 109.16489 7586 ft 274 kts 32°
2026-05-07 05:36 0.00325 109.17788 7112 ft 271 kts 57°
2026-05-07 05:36 0.01150 109.19467 6660 ft 269 kts 68°
2026-05-07 05:37 0.01802 109.21151 6571 ft 250 kts 69°
2026-05-07 05:37 0.02404 109.22714 6421 ft 232 kts 68°
2026-05-07 05:37 0.02973 109.24161 6209 ft 219 kts 68°
2026-05-07 05:37 0.03528 109.25558 5787 ft 216 kts 68°
2026-05-07 05:38 0.04083 109.26950 5337 ft 215 kts 68°
2026-05-07 05:38 0.04636 109.28334 4889 ft 214 kts 68°
2026-05-07 05:38 0.05185 109.29705 4474 ft 212 kts 68°
2026-05-07 05:38 0.05727 109.31057 4164 ft 204 kts 68°
2026-05-07 05:39 0.06246 109.32348 4007 ft 199 kts 68°
2026-05-07 05:39 0.06752 109.33608 3767 ft 190 kts 68°
2026-05-07 05:39 0.07416 109.34731 3486 ft 189 kts 39°
2026-05-07 05:39 0.08585 109.35260 3292 ft 186 kts
2026-05-07 05:40 0.09847 109.35145 3159 ft 184 kts 340°
2026-05-07 05:40 0.11038 109.34666 3082 ft 188 kts 334°
2026-05-07 05:40 0.11925 109.33710 2772 ft 196 kts 286°
2026-05-07 05:40 0.11813 109.32398 2581 ft 194 kts 240°
2026-05-07 05:41 0.10906 109.31464 2572 ft 186 kts 207°
2026-05-07 05:41 0.09681 109.31227 2512 ft 180 kts 170°
2026-05-07 05:41 0.08483 109.31508 2514 ft 180 kts 162°
2026-05-07 05:41 0.07271 109.31864 2522 ft 179 kts 162°
2026-05-07 05:42 0.06090 109.32217 2504 ft 179 kts 162°
2026-05-07 05:42 0.04884 109.32572 2491 ft 178 kts 162°
2026-05-07 05:42 0.03721 109.32916 2493 ft 175 kts 162°
2026-05-07 05:42 0.02541 109.33264 2494 ft 174 kts 161°
2026-05-07 05:43 0.01386 109.33671 2458 ft 182 kts 158°
2026-05-07 05:43 0.00210 109.34134 2354 ft 181 kts 157°
2026-05-07 05:43 -0.00943 109.34603 2261 ft 178 kts 156°
2026-05-07 05:43 -0.02084 109.35070 2190 ft 177 kts 157°
2026-05-07 05:44 -0.03230 109.35545 2071 ft 178 kts 156°
2026-05-07 05:44 -0.04377 109.36012 2010 ft 176 kts 157°
2026-05-07 05:44 -0.05474 109.36458 1813 ft 165 kts 157°
2026-05-07 05:44 -0.06487 109.36873 1625 ft 154 kts 156°
2026-05-07 05:45 -0.07476 109.37277 1435 ft 154 kts 156°
2026-05-07 05:45 -0.08458 109.37681 1229 ft 151 kts 157°
2026-05-07 05:45 -0.09433 109.38080 1027 ft 151 kts 157°
2026-05-07 05:45 -0.10403 109.38478 832 ft 151 kts 157°
2026-05-07 05:46 -0.11376 109.38875 628 ft 151 kts 158°
2026-05-07 05:46 -0.12346 109.39262 398 ft 149 kts 156°
2026-05-07 05:46 -0.13296 109.39662 227 ft 148 kts 158°
2026-05-07 05:46 -0.14245 109.40046 43 ft 146 kts 157°
2026-05-07 05:47 -0.15072 109.40384 31 ft 102 kts 157°
2026-05-07 05:47 -0.15539 109.40574 29 ft 51 kts 157°
2026-05-07 05:47 -0.15799 109.40678 28 ft 19 kts 158°
2026-05-07 05:47 -0.15915 109.40732 28 ft 18 kts 138°
2026-05-07 05:48 -0.15953 109.40751 28 ft 3 kts 220°
2026-05-07 05:48 -0.15934 109.40732 28 ft 8 kts 341°
2026-05-07 05:48 -0.15831 109.40692 28 ft 25 kts 338°
2026-05-07 05:48 -0.15656 109.40623 29 ft 26 kts 337°
2026-05-07 05:49 -0.15492 109.40555 29 ft 25 kts 338°
2026-05-07 05:49 -0.15338 109.40492 31 ft 23 kts 338°
2026-05-07 05:49 -0.15192 109.40432 31 ft 22 kts 338°
2026-05-07 05:49 -0.15143 109.40412 31 ft 22 kts 338°
2026-05-07 05:50 -0.14920 109.40322 32 ft 17 kts 338°
2026-05-07 05:50 -0.14854 109.40347 32 ft 10 kts 62°
2026-05-07 05:50 -0.14808 109.40369 31 ft 8 kts 340°
2026-05-07 05:50 -0.14753 109.40348 31 ft 8 kts 339°
2026-05-07 05:51 -0.14721 109.40354 31 ft 5 kts 57°
2026-05-07 05:51 -0.14711 109.40377 31 ft 2 kts 67°
2026-05-07 05:51 -0.14707 109.40386 31 ft 1 kts 67°
2026-05-07 05:51 -0.14707 109.40388 31 ft 0 kts 67°